Tracking 20239 objects as of 23-Jan-2020
HD Live streaming from Space Station
objects crossing your sky now

FENGYUN 1C DEB

Track FENGYUN 1C DEB now!
10-day predictions


NORAD ID: 30857
Int'l Code: 1999-025AWT
Perigee: 811.9 km
Apogee: 929.8 km
Inclination: 98.9 °
Period: 102.2 minutes
Semi major axis: 7241 km
RCS: 0.0138 m2 (small)
Launch date: May 10, 1999
Source: People's Republic of China (PRC)
Launch site: Taiyaun Space Center, China (TSC)

Note: This is SATELLITE DEBRIS
aabbcc
Your satellite tracking list
Your tracking list is empty




NASA's NSSDC Master Catalog

Two Line Element Set (TLE):
1 30857U 99025AWT 20023.31317760  .00001734  00000-0  10012-2 0  9994
2 30857  98.9368 322.4627 0081395 318.6699  40.8329 14.08741984662301
Source of the keplerian elements: AFSPC